Regional Weather Roundup
Issued by NWS

Home | Current Version | Previous Version | Graphics & Text | Print | Product List | Glossary On
Versions: 1 2 3 4 5 6 7 8 9 10 11 12 13 14 15 16 17 18 19 20 21 22 23 24 25 26 27 28 29 30 31 32 33 34 35 36 37 38 39 40 41 42 43 44 45 46 47 48 49 50
000
ASUS43 KIND 221700
RWRIN

WEATHER ROUNDUP FOR INDIANA
NATIONAL WEATHER SERVICE INDIANAPOLIS IN
100 PM EDT TUE MAY 22 2018

NOTE: "FAIR" INDICATES FEW OR NO CLOUDS BELOW 12,000 FEET WITH NO
SIGNIFICANT WEATHER AND/OR OBSTRUCTIONS TO VISIBILITY.

* - STATION DOES NOT REPORT WEATHER SUCH AS PRECIPITATION OR FOG.

+ - STATION NOT QUALITY CONTROLLED BY THE NATIONAL WEATHER SERVICE.
    USE DATA WITH CAUTION...ESPECIALLY DEWPOINT AND RELATIVE
    HUMIDITY OBSERVATIONS.

INZ001>003-010>013-019-020-221800-
NORTHWEST INDIANA

CITY           SKY/WX    TMP DP  RH WIND       PRES   REMARKS
GARY /AIRPORT/ CLOUDY    55  52  88 VRB5      30.09R FOG
KNOX *+        CLOUDY    70  61  73 NW8       30.05R
MICHIGAN CITY+ CLOUDY    52  52 100 N6        30.09R
MONTICELLO +   PTSUNNY   74  62  64 NW7       30.04S
RENSSELAER +   PTSUNNY   72  54  53 NW6       30.06S

$$

LMZ046-743>745-221800-
SOUTHERN LAKE MICHIGAN

STATION/POSITION TIME  TEMP    WIND        PRES    WAVE
                       AIR SEA DIR/SP/G            HT
                 (UTC) (F)     (DEG/KT/KT) (MB)    (FT)
BURNS HARBOR     1640   49      CALM  /  1 1019.3R
MICHIGAN CITY    1630   48     250/  6/  7   N/A
5NW MICH CITY    1650   46 53  320/  6/  6   N/A     1

$$

INZ004-005-014>016-021>024-221800-
NORTH CENTRAL INDIANA

CITY           SKY/WX    TMP DP  RH WIND       PRES   REMARKS
ELKHART        PTSUNNY   72  59  64 NW10      30.04R
GOSHEN         PTSUNNY   71  64  78 W10       30.03S
PERU/GRISSOM   PTSUNNY   76  67  73 NW13      30.02F
ROCHESTER +    PTSUNNY   72  64  78 NW9       30.05S
SOUTH BEND     CLOUDY    65  59  81 NW14      30.06R
WARSAW +       PTSUNNY   70  63  78 NW6       30.04S

$$

INZ006>009-017-018-025>027-221800-
NORTHEAST INDIANA

CITY           SKY/WX    TMP DP  RH WIND       PRES   REMARKS
ANGOLA *+      PTSUNNY   68  64  88 NW7G14    30.02S
FORT WAYNE     PTSUNNY   77  66  68 W15       30.01F

$$

INZ028-029-035-036-043>045-051>053-221800-
WEST CENTRAL INDIANA

CITY           SKY/WX    TMP DP  RH WIND       PRES   REMARKS
CRAWFORDSVL +  PTSUNNY   76  65  70 W8        30.04F
GREENCASTLE +  FAIR      79  64  61 CALM      30.04F
LAFAYETTE      PTSUNNY   75  64  68 N9G20     30.03S
TERRE HAUTE    FAIR      81  68  64 W8        30.03F

$$

INZ030>032-037>040-046>048-054>057-064-065-221800-
CENTRAL INDIANA

CITY           SKY/WX    TMP DP  RH WIND       PRES   REMARKS
ANDERSON       PTSUNNY   77  66  69 W6        30.03
COLUMBUS       MOSUNNY   77  66  69 W6        30.05S
FRANKFORT +    PTSUNNY   79  66  63 NW9       30.05F
GREENWOOD *+   FAIR      79  69  70 SW9       30.04F
INDIANAPOLIS   PTSUNNY   79  69  71 W9        30.02F
-EAGLE CREEK   FAIR      79  68  69 NW12      30.02F
KOKOMO +       PTSUNNY   76  63  64 W13       30.04S
MT COMFORT *+  CLOUDY    70  66  88 SE6       30.04S
SHELBYVILLE    PTSUNNY   79  68  69 SW9       30.03F
ZIONSVILLE +     N/A    N/A N/A N/A W9        30.03F

$$

INZ033-034-041-042-049-050-058-059-221800-
EAST CENTRAL INDIANA

CITY           SKY/WX    TMP DP  RH WIND       PRES   REMARKS
MUNCIE         FAIR      82  67  60 W12       30.01F
RICHMOND +     FAIR      73  70  88 SW6       30.05F HAZE

$$

INZ060-061-067>069-081>083-085>088-221800-
SOUTHWEST INDIANA

CITY           SKY/WX    TMP DP  RH WIND       PRES   REMARKS
EVANSVILLE     PTSUNNY   82  70  66 SW7       30.05S
HUNTINGBURG +  FAIR      80  71  74 S5        30.06S

$$

INZ062-063-066-070>080-084-089>092-221800-
SOUTH CENTRAL AND SOUTHEAST INDIANA

CITY           SKY/WX    TMP DP  RH WIND       PRES   REMARKS
BLOOMINGTON    PTSUNNY   81  69  67 W7        30.04F
FRENCH LICK *+ PTSUNNY   79  61  53 W6        30.06S
SEYMOUR +      PTSUNNY   81  66  61 W6        30.04

$$





USA.gov is the U.S. government's official web portal to all federal, state and local government web resources and services.